軌道要素
Epoch 2009 June 18.0 TT = JDT 2455000.5
T 2009 June 14.35239 TT                                 Kobayashi
q   1.3769895            (2000.0)            P               Q
n   0.10550918     Peri.   96.30345     +0.78773429     -0.60132494
a   4.4354997      Node   300.74385     +0.48556395     +0.73970016
e   0.6895526      Incl.    8.95127     +0.37908091     +0.30207944
P   9.34
From 219 observations 1981 July 31-2010 May 4, mean residual 0".7.
     Nongravitational parameters A1 = +0.25, A2 = +0.0389.
  |